Malaysia Virtual Airlines Airport Information Service

Ujung Pandang / Hasanuddin

ICAO: WAAA Country: Indonesia
Latitude: -5.06163 Longitude: 119.554
Latest Arrival : AK330 (WMKK-WAAA) Latest Departure : AK331 (WAAA-WMKK)


WX CaptureLIVE
Data provided by noaa.gov | Fetched at 17:40:21

METAR : WAAA 261700Z 12002KT 8000 FEW020 22/20 Q1010 NOSIG

TAF : WAAA 261100Z 2612/2718 15003KT 8000 FEW020 BECMG 2702/2704 28010KT


Runway Data for WAAA
Data provided by openaviationdata.com

Runway ID Mag Var Hdg Length Elevation Surface ILS Freq ILS Id ILS Slope
13 1 129° 8215 ft 47 ft Asphalt 111.3 IUPG 2
31 1 309° 8215 ft 47 ft Asphalt 111.3 IMKS 3

Ujung Pandang / Hasanuddin, Indonesia
Use only for reference purposes



Not for navigational purposes.